Flag for Bahamas Weather past 2 weeks in Nassau, Bahamas

Now
86 °F

Scattered clouds.


Feels Like: 93 °F
Forecast: 82 / 88 °F
Wind: 12 mph from Southeast

Location: Nassau Airport

Current Time: Jul 3, 2015 at 12:31:45 PM

Latest Report: Jul 3, 2015 at 10:00 AM


Visibility: N/A

Pressure: 30.12 "Hg

Humidity: 66%

Dew point: 73 °F

Location of NassauLocation

Historic Weather in Nassau — Graph

°F

Nassau temperature yesterday

Maximum temperature yesterday: 90 °F (at 2:00 PM)
Minimum temperature yesterday: 81 °F (at 3:00 AM)
Average temperature yesterday: 85 °F

Past Weeks' High & Low Weather Summary

 TemperatureHumidityPressure
High91 °F (Jun 23, 2:00 PM)94% (Jun 22, 5:00 AM)30.19 "Hg (Jun 22, 5:00 AM)
Low72 °F (Jun 26, 5:00 AM)46% (Jun 30, 12:00 PM)29.53 "Hg (Jun 20, 12:30 AM)
Average85 °F72%30.12 "Hg
* Reported Jun 18 10:00 AM — Jul 3 10:00 AM, Nassau, Weather by CustomWeather, © 2015

Note: Actual official high and low records may vary slightly from our data, if they occured in-between our weather recording intervals... More about our weather records

Advertising

Nassau weather history for previous 24 hours

 ConditionsComfort  
Time TempWeatherWind HumidityBarometerVisibility
10:00 AM
Fri, Jul 3
86 °FScattered clouds.12 mph66%30.12 "HgN/A
9:00 AM84 °FScattered clouds.5 mph74%30.11 "HgN/A
8:00 AM84 °FScattered clouds.6 mph79%30.09 "HgN/A
7:00 AM81 °FPartly cloudy.6 mph84%30.08 "HgN/A
6:00 AM81 °FPartly cloudy.3 mph79%30.08 "HgN/A
5:00 AM82 °FPassing clouds.3 mph84%30.06 "HgN/A
4:00 AM82 °FWarm.3 mph79%30.07 "HgN/A
2:00 AM81 °FPassing clouds.5 mph89%30.11 "Hg6 mi
1:00 AM81 °FThunderstorms. Passing clouds.6 mph84%30.12 "Hg6 mi
12:00 AM82 °FPassing clouds.3 mph79%30.13 "HgN/A
11:00 PM
Thu, Jul 2
84 °FPassing clouds.6 mph79%30.14 "HgN/A
10:00 PM82 °FPassing clouds.6 mph74%30.12 "HgN/A
9:00 PM84 °FScattered clouds.7 mph74%30.10 "HgN/A
8:00 PM86 °FPartly sunny.9 mph66%30.09 "HgN/A
7:00 PM86 °FScattered clouds.8 mph62%30.07 "HgN/A
6:00 PM88 °FScattered clouds.9 mph59%30.08 "HgN/A
5:00 PM90 °FScattered clouds.8 mph59%30.10 "HgN/A
4:00 PM88 °FPassing clouds.8 mph59%30.11 "HgN/A
3:00 PM88 °FScattered clouds.10 mph55%30.12 "HgN/A
2:00 PM90 °FScattered clouds.9 mph63%30.13 "HgN/A
1:00 PM88 °FScattered clouds.12 mph59%30.13 "HgN/A
12:00 PM88 °FScattered clouds.10 mph62%30.13 "HgN/A
Weather by CustomWeather, © 2015

See weather overviewHow to use our weather pages